"Pseudo-MPEC" for P11JB63

Created 2023 Oct 1 2:22:08 UT using Find_Orb

Click here for an explanation of pseudo-MPECs

 
 Astrometry: 
     P11JB63* C2023 09 15Rr4t]'.lAstrometry1$leb.vUD9NfEcredacted;mrJ05P2L=DQF51
     P11JB63  C2023 09 15l'2UMC3?buM8PrQX^PB+Hl;7B'd9ybDkDVclickFqTY7/U_j`(7:F51
     P11JB63  C2023 09 153_,(w(c;Bb#@.!where.s+BdGQ\Vj'=.for/Twm.%jkC_g_=-m^VF51
     P11JB63  C2023 09 15kiRUk)lGssd\(r^YfG_08\p%A3fi+Kyexplanationw:Q,_4x--KF51

Station data:
(F51) Pan-STARRS 1, Haleakala  (N20.707234 W156.255910)  US/Hawaii.
   Observers J. Bulger, T. Lowe, A. Schultz, M. Willman. Measurers K.
   Chambers, S. Chastel, T. de Boer, L. Denneau, J. Fairlamb, H. Flewelling,
   M. Huber, C.-C. Lin, E. Magnier, Y. Ramanjooloo, R. Wainscoat, R. Weryk.
   1.8-m Ritchey-Chrétien + CCD.

Orbital elements:  P11JB63
   Perihelion 2023 Jul 25.53787 +/- 52.6 TT = 12:54:31 (JD 2460151.03787)
Epoch 2023 Sep 15.0 TT = JDT 2460202.5   Earth MOID: 0.4947   Ju: 0.5676
M   7.71954255 +/- 14               (J2000 ecliptic)             AutoNEOCP
n   0.15000433 +/- 0.191            Peri.  253.63660 +/- 90
a   3.50805866 +/- 2.98             Node    66.81182 +/- 41
e   0.5781059 +/- 0.243             Incl.    8.09208 +/- 4.7
P   6.57                   H 21.42  G  0.15   U 11.6  SR
q 1.48002913 +/- 0.528    Q 5.53608819 +/- 106
From 4 observations 2023 Sept. 15 (50.9 min); mean residual 0".06
Residuals in arcseconds: 
230915 F51  .03-  .06+    230915 F51  .07-  .00     
230915 F51  .08+  .09-    230915 F51  .02+  .03+    

Ephemerides (geocentric):
Date (UTC) HH   RA             Dec           delta  r     elong  mag " sig PA
---- --------  ------------   ------------  ------ ------ -----  --- --------
2023 10 01 02  00 24 11.095   -17 05 19.44  .66639 1.6434 160.0 22.3  44d  76
2023 10 01 03  00 24 09.750   -17 04 55.98  .66661 1.6436 160.0 22.3  44d  76
2023 10 01 04  00 24 08.407   -17 04 32.49  .66684 1.6438 160.0 22.3  44d  76
2023 10 01 05  00 24 07.065   -17 04 08.97  .66707 1.6440 160.0 22.4  44d  76
2023 10 01 06  00 24 05.724   -17 03 45.43  .66731 1.6442 160.0 22.4  44d  76
2023 10 01 07  00 24 04.384   -17 03 21.86  .66754 1.6444 159.9 22.4  44d  77
2023 10 01 08  00 24 03.045   -17 02 58.27  .66777 1.6446 159.9 22.4  44d  77
2023 10 01 09  00 24 01.707   -17 02 34.65  .66800 1.6447 159.9 22.4  44d  77
2023 10 01 10  00 24 00.371   -17 02 11.00  .66823 1.6449 159.9 22.4  44d  77
2023 10 01 11  00 23 59.035   -17 01 47.33  .66846 1.6451 159.9 22.4  44d  77
2023 10 01 12  00 23 57.701   -17 01 23.63  .66869 1.6453 159.9 22.4  44d  77
2023 10 01 13  00 23 56.368   -17 00 59.91  .66893 1.6455 159.9 22.4  44d  77
2023 10 01 14  00 23 55.036   -17 00 36.16  .66916 1.6457 159.9 22.4  44d  77
2023 10 01 15  00 23 53.705   -17 00 12.39  .66939 1.6459 159.8 22.4  44d  77
2023 10 01 16  00 23 52.376   -16 59 48.59  .66963 1.6460 159.8 22.4  44d  77
2023 10 01 17  00 23 51.047   -16 59 24.76  .66986 1.6462 159.8 22.4  44d  77
2023 10 01 18  00 23 49.720   -16 59 00.91  .67009 1.6464 159.8 22.4  44d  77
2023 10 01 19  00 23 48.394   -16 58 37.04  .67033 1.6466 159.8 22.4  44d  77
2023 10 01 20  00 23 47.069   -16 58 13.14  .67056 1.6468 159.8 22.4  44d  77
2023 10 01 21  00 23 45.746   -16 57 49.21  .67080 1.6470 159.8 22.4  44d  77
2023 10 01 22  00 23 44.423   -16 57 25.26  .67103 1.6472 159.8 22.4  44d  77
2023 10 01 23  00 23 43.102   -16 57 01.28  .67127 1.6474 159.7 22.4  44d  77
2023 10 02 00  00 23 41.782   -16 56 37.28  .67150 1.6475 159.7 22.4  44d  77
2023 10 02 01  00 23 40.463   -16 56 13.25  .67174 1.6477 159.7 22.4  44d  77
2023 10 02 02  00 23 39.146   -16 55 49.20  .67198 1.6479 159.7 22.4  44d  77
2023 10 02 03  00 23 37.830   -16 55 25.12  .67221 1.6481 159.7 22.4  44d  77
2023 10 02 04  00 23 36.515   -16 55 01.01  .67245 1.6483 159.7 22.4  44d  77
2023 10 02 05  00 23 35.201   -16 54 36.88  .67269 1.6485 159.7 22.4  44d  77
2023 10 02 06  00 23 33.888   -16 54 12.73  .67293 1.6487 159.7 22.4  44d  77
2023 10 02 07  00 23 32.577   -16 53 48.55  .67316 1.6489 159.6 22.4  44d  77
2023 10 02 08  00 23 31.267   -16 53 24.35  .67340 1.6490 159.6 22.4  44d  77
2023 10 02 09  00 23 29.958   -16 53 00.12  .67364 1.6492 159.6 22.4  44d  77
2023 10 02 10  00 23 28.651   -16 52 35.86  .67388 1.6494 159.6 22.4  44d  77
2023 10 02 11  00 23 27.345   -16 52 11.58  .67412 1.6496 159.6 22.4  44d  77
2023 10 02 12  00 23 26.040   -16 51 47.28  .67436 1.6498 159.6 22.4  44d  77
2023 10 02 13  00 23 24.736   -16 51 22.95  .67460 1.6500 159.6 22.4  44d  77
2023 10 02 14  00 23 23.434   -16 50 58.59  .67484 1.6502 159.5 22.4  44d  77
2023 10 02 15  00 23 22.133   -16 50 34.21  .67508 1.6504 159.5 22.4  44d  77
2023 10 02 16  00 23 20.833   -16 50 09.81  .67532 1.6506 159.5 22.4  44d  77
2023 10 02 17  00 23 19.535   -16 49 45.38  .67556 1.6507 159.5 22.4  44d  77
2023 10 02 18  00 23 18.238   -16 49 20.92  .67580 1.6509 159.5 22.4  44d  77
2023 10 02 19  00 23 16.942   -16 48 56.44  .67605 1.6511 159.5 22.4  44d  77
2023 10 02 20  00 23 15.648   -16 48 31.94  .67629 1.6513 159.5 22.4  44d  77
2023 10 02 21  00 23 14.355   -16 48 07.41  .67653 1.6515 159.4 22.4  44d  77
2023 10 02 22  00 23 13.063   -16 47 42.86  .67677 1.6517 159.4 22.4  44d  77
2023 10 02 23  00 23 11.773   -16 47 18.28  .67702 1.6519 159.4 22.4  44d  77
2023 10 03 00  00 23 10.484   -16 46 53.68  .67726 1.6521 159.4 22.4  44d  77
2023 10 03 01  00 23 09.197   -16 46 29.05  .67750 1.6523 159.4 22.4  44d  77